Regional Weather Roundup
Issued by NWS

Home | Current Version | Previous Version | Text Only | Print | Product List | Glossary Off
Versions: 1 2 3 4 5 6 7 8 9 10 11 12 13 14 15 16 17 18 19 20 21 22 23 24 25 26 27 28 29 30 31 32 33 34 35 36 37 38 39 40 41 42 43 44 45 46 47 48 49 50

000
ASUS43 KFSD 260402
RWRSD

WEATHER ROUNDUP FOR SOUTH DAKOTA
NATIONAL WEATHER SERVICE SIOUX FALLS SD
1100 PM CDT SUN SEP 25 2016

NOTE: "FAIR" INDICATES FEW OR NO CLOUDS BELOW 12,000 FEET WITH NO
SIGNIFICANT WEATHER AND/OR OBSTRUCTIONS TO VISIBILITY.


SDZ001>005-009-010-012>017-260500-
NORTHWEST AND NORTH CENTRAL SOUTH DAKOTA

CITY           SKY/WX    TMP DP  RH WIND       PRES   REMARKS
BUFFALO          N/A     46  37  71 W8        30.22F
FAITH            N/A     52  38  58 W10       30.26S
MOBRIDGE       PTCLDY    51  37  58 NW7       30.19R
$$

SDZ012>016-024>037-041>051-057-063-072>074-260500-
SOUTHWEST AND SOUTH CENTRAL SOUTH DAKOTA

CITY           SKY/WX    TMP DP  RH WIND       PRES   REMARKS
RAPID CTY ARPT CLEAR     46  34  62 W8        30.32S
PIERRE         CLEAR     54  35  48 W9        30.23S
CUSTER         CLEAR     39  27  62 W5        30.38S
ELLSWORTH AFB  CLEAR     43  35  72 W7        30.31F
PHILIP         CLEAR     46  34  62 W5        30.29S
PINE RIDGE     CLEAR     37  30  75 E6        30.35S HAZE
WINNER         FAIR      48  32  53 W6        30.27S
$$

SDZ004>011-016>023-039-040-260500-
NORTHEAST SOUTH DAKOTA

CITY           SKY/WX    TMP DP  RH WIND       PRES   REMARKS
ABERDEEN       CLEAR     53  34  48 W13       30.14S
WATERTOWN      MOCLDY    54  36  50 W13G22    30.12R
SISSETON         N/A     55  37  50 NW16      30.05S
$$

SDZ017-020-022-023-036>040-048>070-260500-
SOUTHEAST SOUTH DAKOTA

CITY           SKY/WX    TMP DP  RH WIND       PRES   REMARKS
SIOUX FALLS    PTCLDY    51  39  63 W7        30.17S
HURON          CLEAR     45  34  65 W8        30.18R
CHAMBERLAIN    CLEAR     50  35  55 W7        30.25R
MITCHELL       CLEAR     51  34  52 W8        30.21R
YANKTON        CLEAR     54  36  50 W10       30.21R
$$

ABBREVIATIONS USED IN REMARKS
   TC - TEMPERATURE IN CELSIUS
  WCI - WIND CHILL INDEX
   HX - HEAT INDEX
  VSB - VISIBILITY





USA.gov is the U.S. government's official web portal to all federal, state and local government web resources and services.